COSMOS 374 DEB

Satellite information

Favourite Embed

Satellite Type and Status

DEBRISIN ORBIT

Key statistics

Satellite COSMOS 374 DEB at a glance.

Uptime

20141

Days in orbit

Revolutions

≈ 14.8

Per day

Orbit

LEO

Low Earth Orbit

Inclination

62.9

Latest

Satellite identification and parameters

Extended collection of information and parameters for COSMOS 374 DEB.

Object identification

Identified? True

Debris? True

Object name: COSMOS 374 DEB

International designator: 1970-089CW

Object number (NORAD): 14122

Object ID (CCSDS): 14122

Country: COMMONWEALTH OF INDEPENDENT STATES (CIS)

Current information (Y/N): Y

RCS size: SMALL

Orbital parameters

Period: 97.62 minutes

Inclination: 62.8735 deg

SMA: 7022.969 km

Apoapsis: 815.858 km

Periapsis: 473.81 km

RAAN: 259.7185 deg

Eccentricy: 0.02435207

Argument of periapsis: 0.3893 deg

Mean anomaly: 359.7337 deg

Mean motion: 14.7510064 rev/day

Mean motion (dot): 0.00052458 rev/day2

B* drag term: 0.0047534662 1/REarth

Two-line elements (TLE)

Creation date: Dec. 13, 2025, 5:47 p.m.

Reference frame: TEME

Reference center: EARTH

Epoch: Dec. 13, 2025, 4:41 a.m. UTC

TLE line 0: 0 COSMOS 374 DEB

TLE line 1: 1 14122U 70089CW 25347.19532423 .00052458 00000-0 47535-2 0 9994

TLE line 2: 2 14122 62.8735 259.7185 0243521 0.3893 359.7337 14.75100640213089

Live tracking on map

Real-time ground track for satellite COSMOS 374 DEB.

In-orbit conjunctions

A list of the most updated potential collisions computed for object COSMOS 374 DEB.

Target Orbit TCA Probability of collision Miss distance Type
PSLV R/B SSO 2025-04-01 10:00:29 0.0002701245 559.0 (m) ROCKET BODY
CZ-6A DEB LEO 2025-02-17 23:11:32 0.000131233 618.0 (m) DEBRIS
ARIANE 5 R/B SSO 2024-09-25 00:48:43 0.0003249123 169.0 (m) ROCKET BODY
FENGYUN 1C DEB SSO 2024-06-19 09:24:45 0.0001662326 267.0 (m) DEBRIS

Associated space launch

The I2P satellites were the first soviet coorbital ASAT system.

COSMOS 374 DEB was lifted into orbit during the mission ‘Tsiklon-2 | I2P 4’, on board a Tsiklon-2 space rocket.

The launch took place on Oct. 23, 1970, 4:42 a.m. from 90/20.

For more information about the launch, click the button.

Launch to space Tsiklon-2 | I2P 4
Tsiklon-2 | I2P 4

Agency: N/A

Status: Launch Successful

Launch date: Oct. 23, 1970, 4:42 a.m. UTC

Rocket: Tsiklon-2

Launch pad: 90/20

Location: Baikonur Cosmodrome, Republic of Kazakhstan

...

Latest news about this satellite

There are no fresh news available about this satellite. Check back as we update our databases every day.


Newsletter sign-up

Weekly statistics, charts and insights to help you stay on top of the space industry.